#timestamp,LO_Frequency,Hit,StdDev 
1702051215.5,286047002.3,N
1702051235.3,286047002.5,N
1702051255.2,286047000.6,N
1702051275.9,286047002.6,N
1702051295.7,286047002.8,N
1702051315.6,286047000.5,N
1702051335.4,286047000.9,N
1702051355.2,286047001.6,N
1702051375.1,286047003.7,N
1702051376.0,286047003.7,N
1702051395.8,286047002.1,N
1702051415.7,286047002.8,N
1702051435.5,286047002.3,N
1702051455.3,286046999.8,N
1702051475.2,286047003.9,N
1702051495.0,286047004.1,Y
1702051495.9,286047004.1,P
1702051515.8,286047000.7,N
1702051535.6,286047002.2,N
1702051555.4,286047000.0,N
1702051575.3,286046999.4,N
1702051595.1,286047001.1,N
1702051615.8,286046998.6,N
1702051635.7,286047000.7,N
1702051655.5,286047002.0,N
1702051675.4,286046998.5,N
1702051695.2,286047002.3,N
1702051715.0,286047000.9,N
1702051715.9,286047000.9,N
1702051735.8,286046998.9,N
1702051755.6,286046996.8,N
1702051775.4,286047000.3,N
1702051795.3,286046998.9,N
1702051815.1,286047000.7,N
1702051835.9,286046998.5,N
1702051855.7,286046999.4,N
1702051875.5,286046999.4,N
1702051895.4,286046998.1,N
1702051915.2,286046999.2,N
1702051935.0,286047001.1,N
1702051936.0,286047001.1,N
1702051955.8,286046998.5,N
1702051975.6,286047000.7,N
1702051995.5,286046998.6,N
1702052015.3,286046999.4,N
1702052035.1,286046997.4,N
1702052055.9,286046996.5,N
1702052075.7,286046997.0,N
1702052095.6,286046999.5,N
1702052115.4,286046998.3,N
1702052135.2,286046997.5,N
1702052155.1,286046993.4,Y
1702052156.0,286046993.4,P
1702052175.8,286046997.4,N
1702052195.6,286046996.9,N
1702052215.5,286046999.6,N
1702052235.3,286046999.3,N
1702052255.2,286046996.6,N
1702052275.9,286046994.9,N
1702052295.7,286046997.8,N
1702052315.6,286046996.6,N
1702052335.4,286046999.4,N
1702052355.2,286046998.9,N
1702052375.1,286046999.5,N
1702052376.0,286046999.5,N
1702052395.8,286046999.0,N
1702052415.7,286046998.5,N
1702052435.5,286046998.7,N
1702052455.3,286046998.5,N
1702052475.2,286046997.3,N
1702052495.0,286046995.2,N
1702052495.9,286046995.2,N
1702052515.8,286046997.8,N
1702052535.6,286046994.9,N
1702052555.4,286046998.0,N
1702052575.3,286046996.8,N
1702052595.1,286046999.4,N
1702052615.8,286046995.3,N
1702052635.7,286046996.5,N
1702052655.5,286046999.4,N
1702052675.4,286046999.1,N
1702052695.2,286046999.4,N
1702052715.0,286046999.4,N
1702052715.9,286046999.4,N
1702052735.8,286046997.0,N
1702052755.6,286046997.9,N
1702052775.4,286046997.0,N
1702052795.3,286046995.9,N
1702052815.1,286046995.2,Y
1702052835.9,286046999.0,P
1702052855.7,286046997.0,P
1702052875.5,286046999.2,N
1702052895.4,286046999.4,N
1702052915.2,286046996.8,Y
1702052935.0,286046996.7,P
1702052936.0,286046996.7,P
1702052955.8,286047001.2,N
1702052975.6,286047001.0,N
1702052995.5,286046999.9,N
1702053045.3,286047002.7,E
1702053055.3,286047001.1,N
1702053075.1,286047000.8,P
1702053076.0,286047000.8,P
1702053095.8,286046997.3,Y
1702053115.7,286046999.5,P
1702053135.5,286046997.1,P
1702053155.3,286046997.5,N
1702053175.2,286046996.5,N
1702053195.0,286046996.7,N
1702053195.9,286046996.7,N
1702053215.8,286046995.5,N
1702053235.6,286046998.0,N
1702053255.4,286046995.6,N
1702053275.3,286046995.1,Y
1702053295.1,286046999.1,P
1702053315.9,286046998.3,N
1702053335.7,286046998.9,N
1702053355.5,286047000.7,N
1702053375.4,286046998.6,N
1702053395.2,286046999.4,N
1702053415.0,286046999.2,N
1702053415.9,286046999.2,N
1702053435.8,286047002.8,Y
1702053455.6,286047000.4,P
1702053475.5,286047001.6,N
1702053495.3,286047000.5,N
1702053515.1,286047002.8,N
1702053535.9,286046999.9,N
1702053555.7,286047000.1,N
1702053575.5,286047002.1,N
1702053595.4,286047004.0,Y
1702053615.2,286047000.3,P
1702053635.1,286046998.4,P
1702053636.0,286046998.4,N
1702053655.8,286047002.6,N
1702053675.6,286046999.9,N
1702053695.5,286047000.7,N
1702053715.3,286047002.6,N
1702053735.2,286047000.6,N
1702053755.9,286046998.2,N
1702053775.7,286046998.5,N
1702053795.6,286047002.4,N
1702053815.4,286047002.5,N
1702053835.2,286046998.4,N
1702053855.1,286047000.7,N
1702053856.0,286047000.7,N
1702053875.8,286047002.2,N
1702053895.7,286046999.8,N
1702053915.5,286047002.1,N
1702053935.3,286047001.0,N
1702053955.2,286047001.1,N
1702053975.0,286047000.8,N
1702053975.9,286047000.8,N
1702053995.7,286046998.1,N
1702054015.6,286047000.6,N
1702054035.4,286047000.1,N
1702054055.3,286047000.3,N
1702054075.1,286047000.8,N
1702054076.0,286047000.8,N
1702054095.8,286047001.1,N
1702054115.7,286046998.8,N
1702054135.5,286047000.5,N
1702054155.3,286047000.6,N
1702054175.2,286046998.6,N
1702054195.0,286046996.9,N
1702054195.9,286046996.9,N
1702054215.8,286046998.1,N
1702054235.6,286047000.8,N
1702054255.4,286046998.4,N
1702054275.3,286046996.5,N
1702054295.1,286046999.8,N
1702054315.8,286046998.1,N
1702054335.7,286046999.0,N
1702054355.5,286046998.5,N
1702054375.4,286046998.0,N
1702054395.2,286047000.8,N
1702054415.0,286046998.4,N
1702054415.9,286046998.4,N
1702054435.8,286046999.0,N
1702054455.6,286046999.3,N
1702054475.4,286046998.3,N
1702054495.3,286046999.3,N
1702054515.1,286046997.8,N
1702054535.9,286046998.4,N
1702054555.7,286046999.4,N
1702054575.5,286046996.9,N
1702054595.4,286046999.3,N
1702054615.2,286046998.9,N
1702054635.1,286046996.9,N
1702054636.0,286046996.9,N
1702054655.8,286046996.8,N
1702054675.6,286046995.0,Y
1702054695.5,286046996.5,P
1702054715.3,286046998.1,N
1702054735.2,286046999.1,N
1702054755.9,286046998.6,N
1702054775.7,286047002.1,N
1702054795.6,286047003.7,N
